KD9BEW Weather Reports


Display with metric or nautical units.
time (UTC)temp
F
wind
direction
speed
MPH
gust
MPH
rain 1hr
in
rain 24hr
in
rain mn
in
humidity
%
barometer
mb
20260503020100 56 163 1.0 2.0 0.00 0.00 0.00 44 1008.4
20260503014559 57 142 0.0 4.0 0.00 0.00 0.00 43 1008.3
20260503013053 58 134 1.0 4.0 0.00 0.00 0.00 42 1008.5
20260503011606 58 156 0.0 4.0 0.00 0.00 0.00 41 1008.5
20260503010100 59 121 2.0 4.0 0.00 0.00 0.00 41 1008.6
20260503004601 59 209 1.0 6.0 0.00 0.00 0.00 40 1008.8
20260503003103 60 148 1.0 4.0 0.00 0.00 0.00 39 1008.9
20260503001555 60 164 2.0 8.0 0.00 0.00 0.00 39 1009.1
20260503000108 60 196 1.0 8.0 0.00 0.00 0.00 38 1009.3
20260502234554 60 294 2.0 7.0 0.00 0.00 0.00 39 1009.4
20260502233054 61 169 2.0 11.0 0.00 0.00 0.00 39 1009.6
20260502231617 60 0 4.0 11.0 0.00 0.00 0.00 37 1009.8
20260502230056 60 148 3.0 11.0 0.00 0.00 0.00 36 1009.8
20260502224559 61 133 2.0 6.0 0.00 0.00 0.00 35 1009.9
20260502223055 62 294 1.0 8.0 0.00 0.00 0.00 34 1010.0
20260502221554 62 149 1.0 7.0 0.00 0.00 0.00 31 1010.1
20260502220055 61 0 0.0 5.0 0.00 0.00 0.00 33 1010.4
20260502214556 61 142 2.0 9.0 0.00 0.00 0.00 33 1010.5
20260502213054 61 273 3.0 9.0 0.00 0.00 0.00 32 1010.7
20260502211600 60 141 2.0 12.0 0.00 0.00 0.00 33 1010.8
20260502210057 62 230 2.0 8.0 0.00 0.00 0.00 30 1011.0
20260502204555 62 253 1.0 9.0 0.00 0.00 0.00 30 1011.3
20260502203058 63 142 2.0 10.0 0.00 0.00 0.00 29 1011.3
20260502201604 63 157 5.0 10.0 0.00 0.00 0.00 28 1011.5
20260502200055 63 128 2.0 8.0 0.00 0.00 0.00 27 1011.7
20260502194606 63 161 2.0 9.0 0.00 0.00 0.00 28 1012.0
20260502193108 61 76 1.0 8.0 0.00 0.00 0.00 27 1012.2
20260502191606 62 164 2.0 7.0 0.00 0.00 0.00 30 1012.5
20260502190054 61 230 3.0 11.0 0.00 0.00 0.00 30 1013.0
20260502184605 61 176 2.0 10.0 0.00 0.00 0.00 29 1013.2
20260502183056 61 18 0.0 10.0 0.00 0.00 0.00 31 1013.4
20260502181558 60 5 2.0 11.0 0.00 0.00 0.00 31 1013.6
20260502163056 56 264 2.0 7.0 0.00 0.00 0.00 34 1015.3
20260502161624 56 202 2.0 8.0 0.00 0.00 0.00 32 1015.5
20260502160125 56 28 2.0 6.0 0.00 0.00 0.00 36 1015.6
20260502151605 54 286 2.0 6.0 0.00 0.00 0.00 35 1016.1
20260502130116 42 221 2.0 9.0 0.00 0.00 0.00 56 1017.2
20260502123122 39 194 3.0 8.0 0.00 0.00 0.00 58 1017.3
20260502121604 38 169 2.0 7.0 0.00 0.00 0.00 60 1017.2
20260502120117 37 113 2.0 6.0 0.00 0.00 0.00 61 1017.2
20260502114558 36 188 1.0 5.0 0.00 0.00 0.00 63 1017.2
20260502113057 34 157 0.0 2.0 0.00 0.00 0.00 66 1017.2
20260502111556 34 148 0.0 3.0 0.00 0.00 0.00 67 1017.2
20260502110057 34 161 1.0 3.0 0.00 0.00 0.00 68 1017.1
20260502104557 33 156 0.0 1.0 0.00 0.00 0.00 69 1017.2
20260502103053 34 165 0.0 3.0 0.00 0.00 0.00 68 1017.2
20260502101603 34 148 1.0 2.0 0.00 0.00 0.00 68 1017.3
20260502070059 31 0 0.0 0.0 0.00 0.00 0.00 79 1018.0
20260502064559 30 0 0.0 0.0 0.00 0.00 0.00 80 1018.0
20260502063101 31 0 0.0 0.0 0.00 0.00 0.00 79 1018.1
20260502061559 31 0 0.0 0.0 0.00 0.00 0.00 78 1018.1
20260502060116 31 0 0.0 1.0 0.00 0.00 0.00 78 1018.1
20260502054555 31 0 0.0 0.0 0.00 0.00 0.00 79 1018.2
20260502053059 32 0 0.0 0.0 0.00 0.00 0.00 78 1018.2
20260502051602 33 0 0.0 1.0 0.00 0.00 0.00 76 1018.2
20260502050055 33 155 1.0 2.0 0.00 0.00 0.00 76 1018.2
20260502044601 33 145 1.0 2.0 0.00 0.00 0.00 76 1018.3
20260502043154 32 144 1.0 2.0 0.00 0.00 0.00 78 1018.2
20260502041558 32 0 0.0 0.0 0.00 0.00 0.00 78 1018.3
20260502040105 33 0 0.0 1.0 0.00 0.00 0.00 77 1018.4
20260502034602 34 157 0.0 2.0 0.00 0.00 0.00 75 1018.3
20260502033106 34 157 1.0 2.0 0.00 0.00 0.00 72 1018.3
20260502031554 35 159 1.0 2.0 0.00 0.00 0.00 73 1018.3
20260502030056 36 159 1.0 2.0 0.00 0.00 0.00 72 1018.3
20260502024610 36 173 1.0 2.0 0.00 0.00 0.00 72 1018.3
20260502023056 37 39 0.0 1.0 0.00 0.00 0.00 70 1018.3
20260502021606 38 0 0.0 1.0 0.00 0.00 0.00 66 1018.2